Location: Brno
(49.2000°N, 16.6330°E)
Time: 21:38:35
(UTC+02:00)

Explorer 11/Cluster Stage 4 - Pass Details

Date: 01 August 2021
Orbit: 467 x 1257 km, 28.8° (Epoch: 17 September)

Event Time Altitude Azimuth Distance (km) Brightness Sun altitude
Rises 11:53:42 0° 236° (SW) 4,188 10.3 56.0°
Reaches altitude 10° 11:57:59 10° 217° (SW) 3,220 10.1 56.3°
Maximum altitude 12:02:30 16° 183° (S) 2,740 10.1 56.6°
Drops below altitude 10° 12:06:51 10° 149° (SSE) 3,085 10.3 56.9°
Sets 12:10:49 0° 129° (SE) 3,928 10.6 57.2°
